Santa Maria, CA

10:17 AM PDT on April 30, 2017 (GMT -0700)
Santa Maria Public Airport / Captain G. Allan Hancock Field

Weather History for KSMX - December, 2012

Change the Weather History Date:

Wednesday, December 5, 2012

  Actual Average Record
Temperature  
Mean Temperature 58 °F 52 °F  
Max Temperature 66 °F 64 °F 86 °F (1938)
Min Temperature 49 °F 40 °F 29 °F (1921)
Degree Days  
Heating Degree Days 7 13  
Month to date heating degree days 28 64  
Since 1 July heating degree days 470 710  
Cooling Degree Days 0 0  
Month to date cooling degree days 0 0  
Year to date cooling degree days 120 104  
Growing Degree Days 7 (Base 50)    
Moisture  
Dew Point 57 °F    
Average Humidity 89    
Maximum Humidity 100    
Minimum Humidity 78    
Precipitation  
Precipitation 0.00 in 0.06 in 1.15 in (1997)
Month to date precipitation 0.43 0.26  
Year to date precipitation 8.63 12.09  
Since 1 July precipitation 1.43  
Sea Level Pressure  
Sea Level Pressure 30.13 in    
Wind  
Wind Speed 4 mph (NW)    
Max Wind Speed 14 mph    
Max Gust Speed -    
Visibility 3 miles    
Events Fog    
T = Trace of Precipitation, MM = Missing Value Source: NWS Daily Summary

Daily Weather History Graph

Daily Weather History Graph

Search for Another Location

Airport or City:

Trip Planner

Search our weather history database for the weather conditions in past years. The results will help you decide how hot, cold, wet, or windy it might be!

Date:

Astronomy

Dec. 05, 2012 Rise Set
Actual Time 6:55 AM PST 4:50 PM PST
Civil Twilight 6:27 AM PST 5:18 PM PST
Nautical Twilight 5:55 AM PST 5:49 PM PST
Astronomical Twilight 5:25 AM PST 6:20 PM PST
Moon 11:33 PM PST (12/5) 11:32 AM PST (12/5)
Length of Visible Light 10h 50m
Length of Day
9h 55m
Waning Gibbous, 58% of the Moon is Illuminated
Dec 5
Waning Gibbous
Dec 6
Last Quarter
Dec 13
New
Dec 19
First Quarter
Dec 28
Full

Hourly Weather History & Observations

Time (PST) Temp. Dew Point Humidity Pressure Visibility Wind Dir Wind Speed Gust Speed Precip Events Conditions
12:16 AM 51.8 °F 50.0 °F 94% 30.21 in 0.2 mi Calm Calm - N/A Fog Fog
12:23 AM 51.8 °F 51.8 °F 100% 30.21 in 0.8 mi Calm Calm - N/A   Overcast
12:34 AM 51.8 °F 51.8 °F 100% 30.21 in 1.0 mi Calm Calm - N/A   Overcast
12:51 AM 52.0 °F 52.0 °F 100% 30.22 in 2.0 mi Calm Calm - N/A   Overcast
12:59 AM 53.6 °F 51.8 °F 94% 30.20 in 4.0 mi Calm Calm - N/A   Overcast
1:51 AM 54.0 °F 53.1 °F 97% 30.21 in 5.0 mi Calm Calm - N/A   Overcast
2:51 AM 53.1 °F 52.0 °F 96% 30.21 in 3.0 mi Calm Calm - N/A   Overcast
2:54 AM 53.6 °F 51.8 °F 94% 30.20 in 1.8 mi Calm Calm - N/A   Overcast
3:03 AM 53.6 °F 51.8 °F 94% 30.20 in 1.2 mi Calm Calm - N/A   Overcast
3:09 AM 53.6 °F 51.8 °F 94% 30.20 in 2.0 mi Calm Calm - N/A   Overcast
3:29 AM 53.6 °F 51.8 °F 94% 30.19 in 1.0 mi Calm Calm - N/A   Overcast
3:35 AM 53.6 °F 51.8 °F 94% 30.19 in 0.2 mi Calm Calm - N/A Fog Fog
3:51 AM 52.0 °F 52.0 °F 100% 30.20 in 0.2 mi Calm Calm - N/A Fog Fog
4:33 AM 51.8 °F 51.8 °F 100% 30.19 in 0.2 mi Calm Calm - N/A Fog Fog
4:51 AM 52.0 °F 51.1 °F 97% 30.19 in 0.2 mi ESE 4.6 mph - N/A Fog Fog
6:51 AM 48.9 °F 48.9 °F 100% 30.20 in 0.2 mi Calm Calm - N/A Fog Fog
7:47 AM 50.0 °F 50.0 °F 100% 30.19 in 4.0 mi Calm Calm - N/A   Mostly Cloudy
7:51 AM 50.0 °F 50.0 °F 100% 30.21 in 7.0 mi Calm Calm - N/A   Mostly Cloudy
8:51 AM 53.1 °F 52.0 °F 96% 30.21 in 8.0 mi Calm Calm - N/A   Scattered Clouds
9:51 AM 57.9 °F 52.0 °F 81% 30.20 in 10.0 mi Calm Calm - N/A   Overcast
10:51 AM 62.1 °F 55.0 °F 78% 30.20 in 10.0 mi NW 6.9 mph - N/A   Mostly Cloudy
11:30 AM 62.6 °F 57.2 °F 82% 30.17 in 10.0 mi NW 9.2 mph - N/A   Mostly Cloudy
11:51 AM 63.0 °F 57.0 °F 81% 30.16 in 10.0 mi NW 9.2 mph - N/A   Mostly Cloudy
12:51 PM 64.9 °F 57.9 °F 78% 30.13 in 10.0 mi West 8.1 mph - N/A   Partly Cloudy
1:51 PM 64.9 °F 59.0 °F 81% 30.10 in 10.0 mi WNW 11.5 mph - N/A   Partly Cloudy
2:51 PM 66.0 °F 60.1 °F 81% 30.09 in 10.0 mi NW 9.2 mph - N/A   Clear
3:20 PM 64.4 °F 60.8 °F 88% 30.08 in 10.0 mi NW 12.7 mph - N/A   Mostly Cloudy
3:51 PM 62.1 °F 59.0 °F 90% 30.09 in 10.0 mi NW 11.5 mph - N/A   Mostly Cloudy
4:29 PM 60.8 °F 59.0 °F 94% 30.08 in 1.5 mi NNW 10.4 mph - N/A   Overcast
4:47 PM 60.8 °F 59.0 °F 94% 30.07 in 0.5 mi NNW 6.9 mph - N/A Fog Fog
4:51 PM 60.1 °F 59.0 °F 96% 30.08 in 0.8 mi NNW 9.2 mph - N/A   Overcast
5:51 PM 60.1 °F 59.0 °F 96% 30.08 in 2.0 mi NNW 4.6 mph - N/A   Overcast
6:19 PM 60.8 °F 59.0 °F 94% 30.08 in 1.8 mi NW 5.8 mph - N/A   Overcast
6:51 PM 60.1 °F 59.0 °F 96% 30.09 in 1.0 mi NW 5.8 mph - N/A   Mist
7:00 PM 60.8 °F 60.8 °F 100% 30.08 in 0.5 mi NW 6.9 mph - N/A Fog Fog
7:14 PM 60.8 °F 60.8 °F 100% 30.08 in 0.2 mi NW 5.8 mph - N/A Fog Fog
7:51 PM 60.1 °F 60.1 °F 100% 30.10 in 0.2 mi NNW 3.5 mph - N/A Fog Fog
8:12 PM 60.8 °F 60.8 °F 100% 30.08 in 0.5 mi Calm Calm - N/A Fog Fog
8:24 PM 60.8 °F 60.8 °F 100% 30.08 in 0.2 mi NNW 3.5 mph - N/A Fog Fog
8:34 PM 60.8 °F 60.8 °F 100% 30.08 in 0.5 mi NNW 3.5 mph - N/A Fog Fog
8:51 PM 60.1 °F 60.1 °F 100% 30.09 in 0.2 mi NNW 4.6 mph - N/A Fog Fog
9:27 PM 60.8 °F 60.8 °F 100% 30.07 in 0.5 mi Calm Calm - N/A Fog Fog
9:49 PM 60.1 °F 60.1 °F 100% 30.08 in 1.8 mi Calm Calm - N/A   Overcast
9:53 PM 60.8 °F 60.8 °F 100% 30.08 in 3.0 mi Calm Calm - N/A   Overcast
9:58 PM 60.8 °F 60.8 °F 100% 30.08 in 1.8 mi West 3.5 mph - N/A   Overcast
10:07 PM 60.8 °F 60.8 °F 100% 30.07 in 3.0 mi Calm Calm - N/A   Overcast
10:15 PM 60.8 °F 60.8 °F 100% 30.07 in 9.0 mi Calm Calm - N/A   Overcast
10:28 PM 60.8 °F 60.8 °F 100% 30.08 in 1.5 mi NW 3.5 mph - N/A   Overcast
10:34 PM 60.8 °F 60.8 °F 100% 30.08 in 0.8 mi NW 4.6 mph - N/A   Overcast
10:51 PM 60.1 °F 60.1 °F 100% 30.08 in 0.5 mi NNW 4.6 mph - N/A Fog Fog
11:20 PM 60.8 °F 60.8 °F 100% 30.07 in 0.5 mi North 4.6 mph - N/A Fog Fog
11:51 PM 60.1 °F 60.1 °F 100% 30.07 in 0.8 mi Calm Calm - N/A   Mist
11:55 PM 60.8 °F 60.8 °F 100% 30.06 in 1.5 mi NNW 3.5 mph - N/A   Overcast